This is the latest recevied weather packets stored in our database for station/object KB3GVC-13. If no packets are shown the sender has not sent any weather packets the latest 10 day(s).
| Time | Temp. | Humidity | Pressure | Rain* | Wind** | Luminosity | Snow |
|---|---|---|---|---|---|---|---|
| 1777858483 | 7.78° C | 66% | 1015.6 hPa | 0 mm | - | - | - |
| 1777858178 | 8.33° C | 65% | 1015.6 hPa | 0 mm | - | - | - |
| 1777857877 | 8.33° C | 64% | 1015.4 hPa | 0 mm | - | - | - |
| 1777857574 | 8.89° C | 63% | 1015.5 hPa | 0 mm | - | - | - |
| 1777857270 | 8.89° C | 61% | 1015.5 hPa | 0 mm | - | - | - |
| 1777856966 | 8.89° C | 60% | 1015.3 hPa | 0 mm | - | - | - |
| 1777856662 | 9.44° C | 59% | 1015.5 hPa | 0 mm | - | - | - |
| 1777856359 | 9.44° C | 59% | 1015.2 hPa | 0 mm | - | - | - |
| 1777856055 | 10° C | 56% | 1015.2 hPa | 0 mm | - | - | - |
| 1777855753 | 10° C | 54% | 1015.2 hPa | 0 mm | - | - | - |
| 1777855451 | 9.44° C | 54% | 1015.1 hPa | 0 mm | - | - | - |
| 1777855147 | 9.44° C | 57% | 1015.2 hPa | 0 mm | - | - | - |
| 1777854844 | 10° C | 53% | 1015 hPa | 0 mm | - | - | - |
| 1777854540 | 10.56° C | 51% | 1015 hPa | 0 mm | - | - | - |
| 1777854237 | 10.56° C | 51% | 1014.9 hPa | 0 mm | - | - | - |
| 1777853935 | 11.67° C | 49% | 1014.9 hPa | 0 mm | - | - | - |
| 1777853632 | 11.67° C | 47% | 1014.8 hPa | 0 mm | - | - | - |
| 1777853329 | 12.22° C | 44% | 1014.6 hPa | 0 mm | - | - | - |
| 1777853026 | 13.33° C | 42% | 1014.7 hPa | 0 mm | - | - | - |
| 1777852723 | 13.33° C | 39% | 1014.5 hPa | 0 mm | - | - | - |
| 1777852421 | 13.89° C | 38% | 1014.6 hPa | 0 mm | - | - | - |
| 1777852118 | 14.44° C | 38% | 1014.4 hPa | 0 mm | - | - | - |
| 1777851816 | 14.44° C | 37% | 1014.6 hPa | 0 mm | - | - | - |
| 1777851513 | 14.44° C | 37% | 1014.6 hPa | 0 mm | - | - | - |
| 1777851209 | 15° C | 37% | 1014.5 hPa | 0 mm | - | - | - |
* Rain latest hour (hover to see other rain measurements)
** Current wind speed in m/s (hover to see current wind gust speed)